Jackpot

Texas Poker Multi Jackpot System

Kini Telah hadir Jackpot SUPER ROYAL FLUSH

Kini Telah hadir Jackpot 2000 (khusus table VIP keatas).

Ikutilah global jackpot yang tersedia di system kami, dengan system jackpot terbaru dan pertama di indonesia, anda dapat membeli jackpot dengan harga 100 rupiah saja dan menangkan hadiahnya hingga puluhan juta rupiah.

Jackpot bukanlah suatu keharusan untuk dibeli, namun kami memberikan suatu fitur tambahan untuk member tercinta dari www.rajanyapoker.com.

Terdapat tiga pilihan harga jackpot yang bisa anda beli yaitu :100,500,1000 dan 2000(khusus table VIP Keatas) rupiah.

Hadiah dari Multi jackpot system www.rajanyapoker.com

  1. full house x 10 harga jackpot yang anda beli.
      (contoh:anda membeli 1000 maka:1000 X10 = 10.000)
  2. four of kind x 250 harga jackpot yang anda beli
      (contoh:anda membeli 1000 maka:1000 X250 = 250.000)
  3. Straight flush x 1200
      (contoh:anda membeli 1000 maka:1000 X1200 = 1.200.000)
  4. Royal flush x 10000 harga jackpot yang anda beli
      (contoh:anda membeli 1000 maka:1000 X10000 = 10.000.000)
  5. SUPER ROYAL FLUSH x 30000 harga jackpot yang anda beli
      (contoh:anda membeli 1000 maka:1000 X30000 = 30.000.000)

Kondisi kartu

  1. full house adalah kondisi kartu dimana kartu anda dan kartu tengah dengan total 7 kartu bisa mendapatkan nilai 5 kartu dengan kombinasi 1 tris(three of kind) dan 1 pair, contoh 3 kartu 10 dan 2 kartu 5
  2. Four of kind adalah kondisi kartu dimana kartu anda dan kartu tengah dengan total 7 kartu bisa mendapatkan nilai 5 kartu dengan kombinasi 4 kartu yang sama jumlah dan 1 kartu apapun juga contoh anda mendapatkan 4 buah kartu angka 3 dan 1 kartu apapun.
  3. Staright flush adalah kondisi kartu dimana kartu anda dan kartu tengah dengan total 7 kartu bisa mendapatkan nilai 5 kartu dengan kombinasi seri / staright dengan kembang yang sama contoh : urutan kartu dari angka 5, 6, 7, 8 , 9 10 dengan kembang yg sama misalnya as hati
  4. Royal flush adalah kondisi kartu dimana kartu anda dan kartu tengah dengan total 7 kartu bisa mendapatkan nilai 5 kartu dengan kombinasi seri / staright dengan kembang yang sama tetapi kartu tersebut haruslah dimulai dari 10. contoh 10, Queen, Jack, King dan aces dengan kembang yang sama
  5. Super Royal flush adalah kondisi kartu dimana Kedua kartu anda digabung dengan 3 kartu pertama meja haruslah royal flush. contoh kartu anda 10,Queen kembang sama dan 3 kartu pertama meja adalah Jack, King dan aces dengan kembang yang sama

Demikian adalah penjelasan dari Multi Jackpot www.rajanyapoker.com terima kasih dan selamat bermain salam hoki dari kami

Texas Poker Jackpot Winner

TOP SUPER ROYAL FLUSH
No.TanggalNamaPriceWin
118/12 16:32REWA_99Super Royal flush15,000,000
218/12 11:40NRULES2502Super Royal flush15,000,000
318/12 10:24MANIK44Super Royal flush15,000,000
418/12 03:22YANSPEACESuper Royal flush30,000,000
517/12 21:42ZANDYMANSuper Royal flush6,000,000
TOP ROYAL FLUSH
No.TanggalNamaPriceWin
118/12 23:39SUKMA0444Royal flush5,000,000
218/12 23:32FLUSSTRAXRoyal flush10,000,000
318/12 23:30SHBMADRIDISTARoyal flush1,000,000
418/12 23:25G6LBZO0MFERoyal flush5,000,000
518/12 22:58AADDAIAD97Royal flush1,000,000
TOP STRAIGHT FLUSH
No.TanggalNamaPriceWin
118/12 23:39AVILLA88Straight Flush600,000
218/12 23:38NUNIK97Straight Flush120,000
318/12 23:35UOB19Straight Flush2,400,000
418/12 23:32GANDOS3Straight Flush120,000
518/12 23:31KJ061991Straight Flush120,000
LATEST JACKPOT
No.TanggalNamaPriceWin
118/12 23:39BELAWI00Full House2,000
218/12 23:39F9900675Full House2,000
318/12 23:39UNCATTTFull House5,000
418/12 23:39PITING22Full House1,000
518/12 23:39LAYESSFull House2,000
618/12 23:39IPK1Full House10,000
718/12 23:39INAFIS99Full House5,000
818/12 23:39DANBILZERFull House5,000
918/12 23:39YUCAN17Full House2,000
1018/12 23:39LAI_12Full House1,000
1118/12 23:39P0S31D0N_Full House1,000
1218/12 23:39KUPROY188Full House2,000
1318/12 23:39KESAY4NGANFull House10,000
1418/12 23:39ROSE04Full House1,000
1518/12 23:39CC2C7C72Full House1,000
1618/12 23:39CLAS111Full House5,000
1718/12 23:39CBN246Full House2,000
1818/12 23:39SUKMA0444Royal flush5,000,000
1918/12 23:39DUNKERS654Full House1,000
2018/12 23:39HOLILI12Full House5,000
2118/12 23:39DAAQUEENFull House1,000
2218/12 23:39BUAH1111Full House5,000
2318/12 23:39PHET4RUNGFull House1,000
2418/12 23:39CIH199Full House2,000
2518/12 23:39KOCCITARAFull House2,000
2618/12 23:39ZXC1212Full House1,000
2718/12 23:39TOM3KFull House2,000
2818/12 23:39POLI11Full House2,000
2918/12 23:39EX76Full House2,000
3018/12 23:39GLTM05Full House2,000
3118/12 23:39TETO1512Four Of A Kind50,000
3218/12 23:39USER_09Full House1,000
3318/12 23:39TYO11HEROFull House2,000
3418/12 23:39DISHUB666Full House1,000
3518/12 23:39LOIS333Full House10,000
3618/12 23:39UGHIE_Full House5,000
3718/12 23:39SIBALIFull House2,000
3818/12 23:39INGAN366Full House5,000
3918/12 23:39AKANG450Full House2,000
4018/12 23:39T4DSUDIR123Full House1,000
4118/12 23:39GIRUODFull House1,000
4218/12 23:39TYA_98Full House10,000
4318/12 23:39TELANFull House20,000
4418/12 23:39ZINAR1708Full House5,000
4518/12 23:39OK1W8YYB99Full House2,000
4618/12 23:39JUSTIN89Full House5,000
4718/12 23:39KTTFWSSXXYFull House2,000
4818/12 23:39KAKEK_SUGIFull House5,000
4918/12 23:39GITO1969Full House2,000
5018/12 23:39TEDYNEHFull House1,000

Domino Multi Jackpot System

Ikutilah global jackpot yang tersedia di system kami, dengan system jackpot terbaru dan pertama di indonesia, anda dapat membeli jackpot dengan harga 100 rupiah saja dan menangkan hadiahnya hingga puluhan juta rupiah.

Jackpot bukanlah suatu keharusan untuk dibeli, namun kami memberikan suatu fitur tambahan untuk member tercinta dari www.rajanyapoker.com.

Terdapat tiga pilihan harga jackpot yang bisa anda beli yaitu :100,500 dan 1000 rupiah.

Hadiah dari Multi jackpot system www.rajanyapoker.com

  1. Murni Kecil x 50 harga jackpot yang anda beli.
      (contoh:anda membeli 1000 maka:1000 X 50 = 50.000)
  2. Murni Besar x 50 harga jackpot yang anda beli
      (contoh:anda membeli 1000 maka:1000 X 50 = 50.000)
  3. BALAK x 100 harga jackpot yang anda beli
      (contoh:anda membeli 1000 maka:1000 X 100 = 100.000)
  4. ENAM DEWA x 6666 harga jackpot yang anda beli
      (contoh:anda membeli 1000 maka:1000 X 6666 = 6.666.000)

Demikian adalah penjelasan dari Multi Jackpot www.rajanyapoker.com terima kasih dan selamat bermain salam hoki dari kami

Domino Jackpot Winner

TOP ENAM DEWA
No.TanggalNamaPriceWin
118/12 21:16MBRODOL99murni enam3,333,000
218/12 20:27PASTI39murni enam666,600
318/12 20:15HIUWHITEmurni enam666,600
418/12 19:35WAN7109murni enam666,600
518/12 18:20DONGBASmurni enam6,666,000
TOP BALAK
No.TanggalNamaPriceWin
118/12 23:37ELHADARbalak100,000
218/12 23:37MULTI88802balak50,000
318/12 23:34WIK1WT22ZPbalak100,000
418/12 23:32QS65FMICYRbalak10,000
518/12 23:31MULTI88802balak50,000
LATEST JACKPOT
No.TanggalNamaPriceWin
118/12 23:39ANDYMESSImurni besar50,000
218/12 23:39YF1WU44DAJlucky9910,000
318/12 23:39CHAJM6666lucky9925,000
418/12 23:39SHIEFOENmurni besar25,000
518/12 23:38WIJAYAA89murni besar25,000
618/12 23:37ELHADARbalak100,000
718/12 23:37MULTI88802balak50,000
818/12 23:37CELANA99murni besar50,000
918/12 23:37BIDIN29murni kecil50,000
1018/12 23:37CUPLUN88murni kecil50,000
1118/12 23:37ARUL114lucky9950,000
1218/12 23:36PUTUTCLPmurni kecil50,000
1318/12 23:36DERMAWANWNmurni besar5,000
1418/12 23:36JERO697murni kecil50,000
1518/12 23:35DOGLE01murni besar25,000
1618/12 23:34RAJAWALI02murni kecil50,000
1718/12 23:34MULTI88802murni kecil25,000
1818/12 23:34WIK1WT22ZPbalak100,000
1918/12 23:34CELANA99murni kecil50,000
2018/12 23:34KIMET06murni besar5,000
2118/12 23:34OMENPEREZmurni besar5,000
2218/12 23:34EFFImurni kecil5,000
2318/12 23:33C1TCICUITmurni besar5,000
2418/12 23:33CAKMIN7murni besar25,000
2518/12 23:32KAPU32murni kecil50,000
2618/12 23:32VANELVINmurni besar50,000
2718/12 23:32TIGER81murni kecil25,000
2818/12 23:32QS65FMICYRbalak10,000
2918/12 23:32TEMPIKQQ81murni besar5,000
3018/12 23:32MAKNO99murni kecil50,000
3118/12 23:32PULXXmurni besar5,000
3218/12 23:32DWTANGKASAmurni kecil25,000
3318/12 23:31MULTI88802balak50,000
3418/12 23:30EPONG72murni kecil50,000
3518/12 23:30MUF26murni besar50,000
3618/12 23:30DN4DOTIN123murni besar50,000
3718/12 23:30KOBEL14balak50,000
3818/12 23:29HEN3355lucky992,500
3918/12 23:29LEHO777murni besar50,000
4018/12 23:28PHISAN7788lucky992,500
4118/12 23:28KAPU32murni kecil50,000
4218/12 23:28GODAK93murni kecil25,000
4318/12 23:28GUSZAMlucky9910,000
4418/12 23:28FRY15J88balak10,000
4518/12 23:28TUCAN0murni kecil50,000
4618/12 23:28PT4DBIM45murni kecil25,000
4718/12 23:27PAKI999murni besar25,000
4818/12 23:27KAPU32murni kecil50,000
4918/12 23:27AD4M32murni kecil5,000
5018/12 23:26IBENK2345lucky992,500

Ceme Multi Jackpot System

Jackpot dilihat dari gabungan kartu pemain dengan kartu bandar. Bandar harus membeli jackpot sebanyak jumlah player yang sedang duduk. Sebagai contoh bila terdapat 3 pemain duduk bermain, dan bandar memutuskan untuk membeli jackpot Rp 1.000, maka pada periode tersebut bandar akan membeli jackpot sebanyak 3xRp1.000 = Rp3.000.

Jackpot bukanlah suatu keharusan untuk dibeli, namun kami memberikan suatu fitur tambahan untuk member tercinta dari www.rajanyapoker.com.

Terdapat tiga pilihan harga jackpot yang bisa anda beli yaitu :100,500 dan 1000 rupiah.

Hadiah dari Multi jackpot system www.rajanyapoker.com

  1. Murni Kecil x 50 harga jackpot yang anda beli.
      (contoh:anda membeli 1000 maka:1000 X 50 = 50.000)
  2. Murni Besar x 50 harga jackpot yang anda beli
      (contoh:anda membeli 1000 maka:1000 X 50 = 50.000)
  3. BALAK x 200 harga jackpot yang anda beli
      (contoh:anda membeli 1000 maka:1000 X 200 = 200.000)
  4. ENAM DEWA x 6666 harga jackpot yang anda beli
      (contoh:anda membeli 1000 maka:1000 X 6666 = 6.666.000)

Demikian adalah penjelasan dari Multi Jackpot www.rajanyapoker.com terima kasih dan selamat bermain salam hoki dari kami

Ceme Jackpot Winner

TOP ENAM DEWA
No.TanggalNamaPriceWin
118/12 23:33YUDI423murni enam6,666,000
218/12 23:22KYKYKY007murni enam666,600
318/12 23:13GUN1GUN1murni enam6,666,000
418/12 23:06SUKKERmurni enam666,600
518/12 23:03KRUCIL24murni enam3,333,000
TOP BALAK
No.TanggalNamaPriceWin
118/12 23:38HADIINORDbalak100,000
218/12 23:38BTNI2004balak200,000
318/12 23:38GRACEZ99balak200,000
418/12 23:38SPM124balak100,000
518/12 23:38HRC46balak100,000
LATEST JACKPOT
No.TanggalNamaPriceWin
118/12 23:39SKALISmurni kecil50,000
218/12 23:39YAREEKKKmurni kecil25,000
318/12 23:39HENDRO129murni besar25,000
418/12 23:39DANAU07murni kecil5,000
518/12 23:39LAPARX307murni kecil50,000
618/12 23:39GOTEPJRmurni kecil5,000
718/12 23:39MANIZZZmurni besar50,000
818/12 23:39WWWOWWW2murni besar50,000
918/12 23:39SANGKOT2OHmurni kecil50,000
1018/12 23:38ZUZAJI11murni kecil50,000
1118/12 23:38HADIINORDbalak100,000
1218/12 23:38WEDOS158murni kecil50,000
1318/12 23:38BTNI2004balak200,000
1418/12 23:38GRACEZ99balak200,000
1518/12 23:38AJENG6363murni kecil50,000
1618/12 23:38LINA3131murni besar50,000
1718/12 23:38GOMBLO131murni kecil5,000
1818/12 23:38ANGIE1215murni kecil50,000
1918/12 23:38YOGM3LUFDWmurni kecil50,000
2018/12 23:38POKI990murni kecil25,000
2118/12 23:38SPM124balak100,000
2218/12 23:38HRC46balak100,000
2318/12 23:38KOMBET189balak20,000
2418/12 23:38LIO35murni kecil5,000
2518/12 23:38SUPERSWAGGbalak20,000
2618/12 23:38WALEN22balak100,000
2718/12 23:38SNIFER23murni kecil50,000
2818/12 23:37AANBOY30balak200,000
2918/12 23:37M3N3NGmurni kecil50,000
3018/12 23:37AADDARDD79murni kecil50,000
3118/12 23:37A13Smurni kecil25,000
3218/12 23:37ND2101balak20,000
3318/12 23:37NABILPUTRImurni kecil50,000
3418/12 23:37GXO3QA52NDmurni kecil25,000
3518/12 23:37BLELANGbalak200,000
3618/12 23:37PATALO_KObalak200,000
3718/12 23:37BU53T88balak200,000
3818/12 23:37ZUZAJI11balak200,000
3918/12 23:37BEUJ4Ymurni kecil25,000
4018/12 23:37UWIEZ182murni besar50,000
4118/12 23:37EXTA51murni besar50,000
4218/12 23:36SABER96murni kecil25,000
4318/12 23:36TIYA303murni kecil5,000
4418/12 23:36IKANKOIIImurni kecil50,000
4518/12 23:36TERANGTERUmurni kecil50,000
4618/12 23:36KINGJOKER8murni kecil25,000
4718/12 23:36G3FPJHHZ0Vmurni besar50,000
4818/12 23:36SUCK06murni kecil5,000
4918/12 23:36CUPRET11murni kecil5,000
5018/12 23:36INDIGO02murni kecil25,000